Hill Air Force Base, UT

3:01 AM MDT on September 30, 2016 (GMT -0600)
Hill Air Force Base

Weather History for KHIF - December, 2012

Change the Weather History Date:

Saturday, December 8, 2012

  Actual Average Record
Temperature  
Mean Temperature 28 °F -  
Max Temperature 38 °F 36 °F 54 °F (2014)
Min Temperature 19 °F 23 °F 0 °F (2005)
Degree Days  
Heating Degree Days 36    
Moisture  
Dew Point 20 °F    
Average Humidity 77    
Maximum Humidity 100    
Minimum Humidity 48    
Precipitation  
Precipitation 0.03 in - - ()
Sea Level Pressure  
Sea Level Pressure 30.04 in    
Wind  
Wind Speed 8 mph (WNW)    
Max Wind Speed 18 mph    
Max Gust Speed 24 mph    
Visibility 6 miles    
Events Snow    
Averages and records for this station are not official NWS values.
T = Trace of Precipitation, MM = Missing Value Source: NWS Daily Summary

Daily Weather History Graph

Daily Weather History Graph

Search for Another Location

Airport or City:

Trip Planner

Search our weather history database for the weather conditions in past years. The results will help you decide how hot, cold, wet, or windy it might be!

Date:

Astronomy

Dec. 08, 2012 Rise Set
Actual Time 7:41 AM MST 4:59 PM MST
Civil Twilight 7:10 AM MST 5:30 PM MST
Nautical Twilight 6:35 AM MST 6:04 PM MST
Astronomical Twilight 6:02 AM MST 6:38 PM MST
Moon 2:07 AM MST (12/8) 1:33 PM MST (12/8)
Length of Visible Light 10h 20m
Length of Day
9h 18m
Waning Crescent, 27% of the Moon is Illuminated
Dec 8
Waning Crescent
Dec 13
New
Dec 19
First Quarter
Dec 28
Full
Jan 4
Last Quarter

Hourly Weather History & Observations

Time (MST) Temp. Windchill Dew Point Humidity Pressure Visibility Wind Dir Wind Speed Gust Speed Precip Events Conditions
12:58 AM 38.5 °F 30.3 °F 21.7 °F 51% 29.89 in 10.0 mi South 13.8 mph - N/A   Overcast
1:58 AM 38.5 °F 31.1 °F 23.4 °F 55% 29.88 in 10.0 mi South 11.5 mph - N/A   Overcast
2:58 AM 38.5 °F 29.6 °F 24.3 °F 57% 29.86 in 10.0 mi South 16.1 mph - N/A   Overcast
3:53 AM 37.4 °F 29.3 °F 24.8 °F 60% 29.88 in 10.0 mi South 12.7 mph - N/A   Overcast
3:58 AM 37.9 °F 30.0 °F 25.3 °F 60% 29.87 in 10.0 mi South 12.7 mph - N/A   Overcast
4:33 AM 37.4 °F 30.3 °F 24.8 °F 60% 29.87 in 10.0 mi South 10.4 mph - N/A   Overcast
4:58 AM 38.5 °F 34.1 °F 24.8 °F 58% 29.87 in 10.0 mi SSW 5.8 mph - N/A   Overcast
5:58 AM 36.9 °F 31.4 °F 28.0 °F 70% 29.89 in 10.0 mi NW 6.9 mph - N/A   Overcast
6:58 AM 36.1 °F 31.4 °F 24.1 °F 62% 29.91 in 10.0 mi NW 5.8 mph - N/A   Overcast
7:58 AM 35.4 °F 28.4 °F 20.1 °F 54% 29.91 in 10.0 mi NNW 9.2 mph - N/A   Overcast
8:58 AM 35.1 °F 27.4 °F 21.0 °F 57% 29.94 in 10.0 mi NNW 10.4 mph - N/A   Overcast
9:58 AM 34.7 °F 25.1 °F 21.6 °F 59% 29.97 in 10.0 mi NW 15.0 mph - N/A   Overcast
10:23 AM 33.8 °F 22.8 °F 23.0 °F 65% 29.99 in 10.0 mi North 18.4 mph - N/A   Overcast
10:58 AM 31.5 °F 21.4 °F 21.4 °F 66% 30.01 in 10.0 mi North 13.8 mph - N/A   Overcast
11:58 AM 31.6 °F 20.7 °F 17.4 °F 56% 30.02 in 10.0 mi NW 16.1 mph 24.2 mph N/A   Overcast
12:43 PM 32.0 °F 23.6 °F 15.8 °F 51% 30.00 in 10.0 mi NNW 10.4 mph - N/A   Overcast
12:58 PM 30.9 °F 21.7 °F 15.8 °F 54% 30.01 in 10.0 mi NW 11.5 mph - N/A   Overcast
1:23 PM 32.0 °F 23.0 °F 14.0 °F 48% 30.00 in 10.0 mi NW 11.5 mph - N/A   Overcast
1:28 PM 32.0 °F 23.0 °F 14.0 °F 48% 30.00 in 10.0 mi NW 11.5 mph - N/A   Overcast
1:53 PM 32.0 °F 25.6 °F 15.8 °F 51% 30.00 in 10.0 mi NW 6.9 mph - N/A   Overcast
1:58 PM 30.9 °F 22.2 °F 15.3 °F 52% 30.01 in 10.0 mi NNW 10.4 mph - 0.00 in   Overcast
2:58 PM 30.6 °F 21.2 °F 13.8 °F 50% 30.01 in 10.0 mi NW 11.5 mph - N/A   Overcast
3:58 PM 30.6 °F 23.1 °F 14.9 °F 52% 30.02 in 10.0 mi NW 8.1 mph - N/A   Overcast
4:23 PM 32.0 °F 24.8 °F 14.0 °F 48% 30.01 in 10.0 mi NW 8.1 mph - N/A   Overcast
4:28 PM 32.0 °F 24.8 °F 14.0 °F 48% 30.02 in 10.0 mi NW 8.1 mph - N/A   Overcast
4:33 PM 32.0 °F 25.6 °F 14.0 °F 48% 30.02 in 10.0 mi NW 6.9 mph - N/A   Overcast
4:43 PM 32.0 °F 24.8 °F 14.0 °F 48% 30.02 in 9.0 mi WNW 8.1 mph - N/A Snow Light Snow
4:48 PM 30.2 °F 21.3 °F 15.8 °F 55% 30.02 in 8.0 mi NW 10.4 mph - N/A Snow Light Snow
4:58 PM 29.1 °F 22.1 °F 17.8 °F 63% 30.05 in 8.0 mi WNW 6.9 mph - 0.00 in Snow Light Snow
5:18 PM 28.4 °F - 19.4 °F 69% 30.03 in 7.0 mi Variable 2.3 mph - N/A Snow Light Snow
5:23 PM 28.4 °F - 19.4 °F 69% 30.03 in 10.0 mi NW 2.3 mph - N/A Snow Light Snow
5:38 PM 28.4 °F 21.2 °F 21.2 °F 74% 30.04 in 4.0 mi West 6.9 mph - N/A Snow Light Snow
5:43 PM 26.6 °F 21.2 °F 21.2 °F 80% 30.04 in 2.5 mi West 4.6 mph - N/A Snow Light Snow
5:48 PM 26.6 °F 21.2 °F 21.2 °F 80% 30.04 in 4.0 mi WSW 4.6 mph - N/A Snow Light Snow
5:53 PM 26.6 °F 19.1 °F 21.2 °F 80% 30.04 in 6.0 mi NW 6.9 mph - N/A Snow Light Snow
5:58 PM 27.0 °F 18.0 °F 20.1 °F 75% 30.07 in 7.0 mi NNW 9.2 mph - 0.00 in Snow Light Snow
6:03 PM 26.6 °F 20.0 °F 19.4 °F 74% 30.05 in 4.0 mi North 5.8 mph - N/A Snow Light Snow
6:08 PM 26.6 °F 19.1 °F 19.4 °F 74% 30.05 in 4.0 mi NNW 6.9 mph - N/A Snow Light Snow
6:13 PM 26.6 °F 22.6 °F 19.4 °F 74% 30.05 in 9.0 mi Variable 3.5 mph - N/A Snow Light Snow
6:23 PM 26.6 °F 21.2 °F 21.2 °F 80% 30.05 in 3.0 mi NW 4.6 mph - N/A Snow Light Snow
6:28 PM 26.6 °F - 21.2 °F 80% 30.05 in 2.5 mi NW 2.3 mph - N/A Snow Light Snow
6:33 PM 24.8 °F - 21.2 °F 86% 30.05 in 3.0 mi NNW 1.2 mph - N/A Snow Light Snow
6:38 PM 24.8 °F - 21.2 °F 86% 30.05 in 4.0 mi Calm Calm - N/A Snow Light Snow
6:43 PM 24.8 °F - 21.2 °F 86% 30.05 in 7.0 mi South 1.2 mph - N/A Snow Light Snow
6:58 PM 25.3 °F 21.1 °F 21.6 °F 86% 30.11 in 6.0 mi SSE 3.5 mph - 0.00 in Snow Light Snow
7:03 PM 24.8 °F - 21.2 °F 86% 30.06 in 4.0 mi SSE 2.3 mph - N/A Snow Light Snow
7:08 PM 24.8 °F - 21.2 °F 86% 30.06 in 3.0 mi South 2.3 mph - N/A Snow Light Snow
7:13 PM 24.8 °F - 21.2 °F 86% 30.06 in 2.5 mi SSE 2.3 mph - N/A Snow Light Snow
7:18 PM 24.8 °F - 21.2 °F 86% 30.06 in 3.0 mi SSW 2.3 mph - N/A Snow Light Snow
7:23 PM 24.8 °F - 21.2 °F 86% 30.06 in 2.5 mi Calm Calm - N/A Snow Light Snow
7:28 PM 24.8 °F - 21.2 °F 86% 30.07 in 1.5 mi Calm Calm - N/A Snow Light Snow
7:33 PM 24.8 °F - 21.2 °F 86% 30.07 in 1.0 mi Calm Calm - N/A Snow Light Snow
7:48 PM 24.8 °F - 23.0 °F 93% 30.06 in 1.5 mi North 2.3 mph - N/A Snow Light Snow
7:58 PM 24.4 °F 18.6 °F 22.8 °F 94% 30.12 in 1.2 mi NNW 4.6 mph - 0.02 in Snow Light Snow
8:03 PM 24.8 °F 17.9 °F 23.0 °F 93% 30.07 in 1.5 mi NW 5.8 mph - N/A Snow Light Snow
8:08 PM 24.8 °F 19.1 °F 23.0 °F 93% 30.07 in 2.0 mi WNW 4.6 mph - N/A Snow Light Snow
8:13 PM 24.8 °F 19.1 °F 21.2 °F 86% 30.07 in 3.0 mi WNW 4.6 mph - N/A Snow Light Snow
8:18 PM 24.8 °F 17.9 °F 21.2 °F 86% 30.07 in 3.0 mi WNW 5.8 mph - N/A Snow Light Snow
8:28 PM 23.0 °F 17.0 °F 21.2 °F 93% 30.07 in 2.5 mi WNW 4.6 mph - N/A Snow Light Snow
8:43 PM 23.0 °F 17.0 °F 21.2 °F 93% 30.07 in 3.0 mi WNW 4.6 mph - N/A Snow Light Snow
8:58 PM 23.7 °F 19.3 °F 21.7 °F 92% 30.12 in 5.0 mi WNW 3.5 mph - 0.00 in Snow Light Snow
9:03 PM 23.0 °F 17.0 °F 21.2 °F 93% 30.07 in 4.0 mi WNW 4.6 mph - N/A Snow Light Snow
9:13 PM 23.0 °F 18.4 °F 21.2 °F 93% 30.07 in 5.0 mi NW 3.5 mph - N/A Snow Light Snow
9:18 PM 23.0 °F 18.4 °F 21.2 °F 93% 30.07 in 5.0 mi WNW 3.5 mph - N/A Snow Light Snow
9:38 PM 23.0 °F 18.4 °F 21.2 °F 93% 30.08 in 4.0 mi WNW 3.5 mph - N/A Snow Light Snow
9:43 PM 23.0 °F 18.4 °F 21.2 °F 93% 30.08 in 2.0 mi WNW 3.5 mph - N/A Snow Light Snow
9:53 PM 23.0 °F - 21.2 °F 93% 30.08 in 3.0 mi WNW 2.3 mph - N/A Snow Light Snow
9:58 PM 23.0 °F 18.4 °F 21.2 °F 93% 30.13 in 5.0 mi WNW 3.5 mph - 0.01 in Snow Light Snow
10:08 PM 23.0 °F - 21.2 °F 93% 30.08 in 4.0 mi WNW 2.3 mph - N/A Snow Light Snow
10:13 PM 23.0 °F - 21.2 °F 93% 30.08 in 3.0 mi West 2.3 mph - N/A Snow Light Snow
10:23 PM 23.0 °F - 21.2 °F 93% 30.09 in 6.0 mi WNW 2.3 mph - N/A Snow Light Snow
10:28 PM 23.0 °F - 21.2 °F 93% 30.09 in 7.0 mi West 2.3 mph - N/A Snow Light Snow
10:33 PM 23.0 °F - 21.2 °F 93% 30.09 in 8.0 mi West 2.3 mph - N/A Snow Light Snow
10:38 PM 23.0 °F - 21.2 °F 93% 30.09 in 9.0 mi West 2.3 mph - N/A Snow Light Snow
10:44 PM 23.0 °F - 21.2 °F 93% 30.09 in 10.0 mi West 2.3 mph - N/A   Overcast
10:58 PM 22.8 °F - 21.6 °F 95% 30.15 in 10.0 mi Calm Calm - 0.00 in   Mostly Cloudy
11:03 PM 23.0 °F - 21.2 °F 93% 30.09 in 10.0 mi Calm Calm - N/A   Mostly Cloudy
11:28 PM 21.2 °F - 21.2 °F 100% 30.10 in 10.0 mi East 2.3 mph - N/A   Scattered Clouds
11:33 PM 21.2 °F - 19.4 °F 93% 30.10 in 2.5 mi ESE 2.3 mph - N/A   Scattered Clouds
11:38 PM 19.4 °F - 17.6 °F 93% 30.10 in 1.0 mi SE 2.3 mph - N/A   Partly Cloudy
11:43 PM 19.4 °F 14.3 °F 17.6 °F 93% 30.10 in 1.0 mi SSE 3.5 mph - N/A   Partly Cloudy
11:48 PM 21.2 °F - 19.4 °F 93% 30.10 in 2.0 mi SSE 2.3 mph - N/A   Clear
11:53 PM 19.4 °F - 19.4 °F 100% 30.10 in 1.2 mi SSE 2.3 mph - N/A   Partly Cloudy
11:58 PM 19.0 °F - 17.6 °F 94% 30.17 in 0.8 mi SE 2.3 mph - N/A   Partly Cloudy